Tracking 19575 objects as of 19-Feb-2019
HD Live streaming from Space Station
objects crossing your sky now

SURCAL 150B

Track SURCAL 150B now!
10-day predictions
SURCAL 150B is classified as:


NORAD ID: 2909
Int'l Code: 1967-053J
Perigee: 692.5 km
Apogee: 700.9 km
Inclination: 69.9 °
Period: 98.6 minutes
Semi major axis: 7067 km
RCS: 0.061 m2 (small)
Launch date: May 31, 1967
Source: United States (US)
Launch site: AIR FORCE WESTERN TEST RANGE (AFWTR)
aabbcc
Your satellite tracking list
Your tracking list is empty




NASA's NSSDC Master Catalog

Two Line Element Set (TLE):
1  2909U 67053J   19049.90161694 +.00000530 +00000-0 +12126-3 0  9993
2  2909 069.9482 298.0247 0005941 293.4212 066.6302 14.61132184686086
Source of the keplerian elements: AFSPC